Location: B?jaj?g
(11.7167°N, 92.6667°E)
Time: 06:12:19
(UTC+00:00)

Cosmos 1707 Rocket - Pass Details

Date: 18 September 2020
Orbit: 606 x 630 km, 82.5° (Epoch: 18 October)

Event Time Altitude Azimuth Distance (km) Brightness Sun altitude
Exits shadow 22:28:49 36° 278° (W) 960 4.0 -17.9°
Drops below altitude 10° 22:32:42 10° 343° (NNW) 1,947 6.0 -16.9°
Sets 22:35:03 0° 351° (N) 2,851 6.9 -16.4°
